Location: The Saddle
(36.8333°N, 80.3417°W)
Time: 07:23:47
(UTC-04:00)

Courier 1B - Pass Details

Date: 18 September 2024
Orbit: 962 x 1208 km, 28.3° (Epoch: 05 October)

Event Time Altitude Azimuth Distance (km) Brightness Sun altitude
Rises 17:24:21 0° 263° (W) 3,903 12.1 22.8°
Reaches altitude 10° 17:27:15 10° 256° (WSW) 2,983 12.2 22.2°
Maximum altitude 17:33:58 38° 191° (S) 1,688 9.3 20.9°
Drops below altitude 10° 17:40:59 10° 126° (SE) 3,113 9.8 19.5°
Sets 17:44:04 0° 119° (ESE) 4,092 10.3 18.9°
